User: anonymous   Login
Location: Houston
(29.7630°N, 95.3630°W)
Time: 20:38:49
(UTC-06:00)
Language:

Saudisat 1A - Orbit

View from above orbital plane
View from above orbital plane
View from above satellite
View from above satellite

Ground track
Ground track

The orbit data is extracted from the following two-line orbital elements,

1 26546U 00057B   14330.50976034  .00002812  00000-0  31668-3 0  4399
2 26546 064.5578 014.9499 0010684 322.5093 037.5270 14.88600399767551
Epoch (UTC): 26 November 2014 12:14:03
Eccentricity: 0.0010684
inclination: 64.5578°
perigee height: 595 km
apogee height: 610 km
right ascension of ascending node: 14.9499°
argument of perigee: 322.5093°
revolutions per day: 14.88600399
mean anomaly at epoch: 37.5270°
orbit number at epoch: 76755

The dashed part of the orbit path shows where the satellite is in the earth's shadow,  

DLR